Location: Bohy
(49.9380°N, 13.5753°E)
Time: 16:42:54
(UTC+00:00)

Cosmos 2082 Rocket - Pass Details

Date: 19 May 2025
Orbit: 832 x 853 km, 71.0° (Epoch: 16 June)

Event Time Altitude Azimuth Distance (km) Brightness Sun altitude
Exits shadow 21:41:57 20° 204° (SSW) 1,851 3.6 -17.9°
Maximum altitude 21:45:58 85° 116° (ESE) 843 2.1 -18.1°
Drops below altitude 10° 21:51:37 10° 30° (NNE) 2,459 5.2 -18.4°
Sets 21:54:04 0° 30° (NNE) 3,400 6.0 -18.5°
